Station Historical Data
Daily Summary for October 15, 2017 Units:  Metric    English   Both
« Previous Day
Next Day »
Daily Weekly Monthly Yearly Custom
  High: Low: Average:
Temperature: 24.9 °C 10.6 °C 19 °C
Dew Point: 19 °C 5.4 °C 14.3 °C
Humidity: 88% 67% 75%
Wind Speed: 38.6km/h 0km/h 10.9km/h
Wind Gust: 54.7km/h - -
Wind- - WSW
Pressure: 1015.8 hPa 1001.6 hPa -
Precipitation: 0 mm    
Historical Graphs
 
 
Tabular Data for October 15, 2017
Time Temperature Dew Point Pressure Wind Wind Speed Wind Gust Humidity Rainfall Rate (Hourly)
00:00 16.3 °C 14 °C 1015.8 hPa ENE 3.2 km/h 4.8 km/h 86% 0 mm
00:05 16.3 °C 14 °C 1015.8 hPa Calm   6.4 km/h 86% 0 mm
00:10 16.3 °C 14.1 °C 1015.5 hPa ESE 1.6 km/h 3.2 km/h 87% 0 mm
00:15 16.3 °C 14.1 °C 1015.5 hPa East 1.6 km/h 6.4 km/h 87% 0 mm
00:20 16.2 °C 14.1 °C 1015.5 hPa ESE 1.6 km/h 6.4 km/h 87% 0 mm
00:25 16.2 °C 14.1 °C 1015.5 hPa Calm   4.8 km/h 87% 0 mm
00:30 16.2 °C 14.1 °C 1015.5 hPa Calm   9.7 km/h 87% 0 mm
00:34 16.2 °C 14 °C 1015.1 hPa East 1.6 km/h 9.7 km/h 87% 0 mm
00:39 16.2 °C 14 °C 1015.1 hPa Calm   3.2 km/h 87% 0 mm
00:45 16.2 °C 14.2 °C 1014.8 hPa Calm   4.8 km/h 88% 0 mm
00:49 16.1 °C 13.9 °C 1014.8 hPa ESE 1.6 km/h 4.8 km/h 87% 0 mm
00:54 16.1 °C 13.9 °C 1014.8 hPa Calm   6.4 km/h 87% 0 mm
01:00 16.1 °C 13.9 °C 1014.8 hPa Calm     87% 0 mm
01:05 16.1 °C 14.1 °C 1014.8 hPa Calm     88% 0 mm
01:09 16.1 °C 14.1 °C 1014.8 hPa Calm     88% 0 mm
01:14 16.1 °C 14.1 °C 1014.4 hPa Calm     88% 0 mm
01:19 16 °C 14 °C 1014.8 hPa Calm     88% 0 mm
01:25 16 °C 14 °C 1014.4 hPa Calm     88% 0 mm
01:30 16.1 °C 14.1 °C 1014.4 hPa Calm     88% 0 mm
01:35 16.1 °C 14.1 °C 1014.4 hPa Calm     88% 0 mm
01:40 16.1 °C 13.9 °C 1014.4 hPa Calm     87% 0 mm
01:45 16 °C 13.8 °C 1014.4 hPa Calm     87% 0 mm
01:49 16 °C 13.8 °C 1014.1 hPa Calm     87% 0 mm
01:54 16.1 °C 13.9 °C 1014.1 hPa Calm     87% 0 mm
01:59 16.1 °C 13.9 °C 1014.1 hPa Calm     87% 0 mm
02:04 16.1 °C 13.9 °C 1014.1 hPa Calm     87% 0 mm
02:09 16.1 °C 13.9 °C 1014.1 hPa Calm     87% 0 mm
02:14 16.1 °C 13.9 °C 1013.8 hPa Calm     87% 0 mm
02:20 16.2 °C 14 °C 1013.8 hPa Calm     87% 0 mm
02:24 16.1 °C 13.9 °C 1013.4 hPa Calm     87% 0 mm
02:29 16.1 °C 13.8 °C 1013.4 hPa Calm     86% 0 mm
02:34 16.1 °C 13.8 °C 1013.4 hPa Calm     86% 0 mm
02:39 16.1 °C 13.7 °C 1013.1 hPa Calm     86% 0 mm
02:45 16.1 °C 13.7 °C 1013.1 hPa Calm     86% 0 mm
02:50 16.1 °C 13.7 °C 1013.1 hPa Calm     86% 0 mm
02:54 16 °C 13.7 °C 1012.8 hPa Calm     86% 0 mm
02:59 16 °C 13.7 °C 1012.8 hPa Calm     86% 0 mm
03:04 16 °C 13.7 °C 1012.4 hPa Calm     86% 0 mm
03:09 15.9 °C 13.6 °C 1012.4 hPa Calm     86% 0 mm
03:15 15.9 °C 13.6 °C 1012.4 hPa Calm     86% 0 mm
03:19 16 °C 13.7 °C 1012.4 hPa Calm     86% 0 mm
03:24 16.1 °C 13.7 °C 1012.1 hPa Calm     86% 0 mm
03:29 16.2 °C 13.8 °C 1011.7 hPa Calm     86% 0 mm
03:34 16.2 °C 13.9 °C 1011.7 hPa Calm     86% 0 mm
03:39 16.3 °C 13.8 °C 1011.7 hPa Calm     85% 0 mm
03:45 16.4 °C 13.8 °C 1011.7 hPa Calm     85% 0 mm
03:50 16.4 °C 13.8 °C 1011.4 hPa Calm     85% 0 mm
03:55 16.3 °C 13.6 °C 1011.4 hPa Calm     84% 0 mm
03:59 16.3 °C 13.8 °C 1011.4 hPa Calm   4.8 km/h 85% 0 mm
04:04 16.3 °C 13.8 °C 1011.1 hPa Calm   3.2 km/h 85% 0 mm
04:09 16.3 °C 13.8 °C 1011.4 hPa Calm     85% 0 mm
04:14 16.4 °C 13.7 °C 1011.1 hPa Calm     84% 0 mm
04:19 16.4 °C 13.8 °C 1011.1 hPa Calm     85% 0 mm
04:24 16.4 °C 13.8 °C 1010.7 hPa Calm     85% 0 mm
04:29 16.5 °C 13.8 °C 1010.7 hPa Calm   6.4 km/h 84% 0 mm
04:35 16.6 °C 13.8 °C 1010.4 hPa SW 1.6 km/h 4.8 km/h 84% 0 mm
04:39 16.7 °C 14 °C 1010.4 hPa SSW 6.4 km/h 11.3 km/h 84% 0 mm
04:44 17.1 °C 14.4 °C 1010.4 hPa SW 6.4 km/h 17.7 km/h 84% 0 mm
04:49 17.9 °C 14.8 °C 1010 hPa WSW 9.7 km/h 14.5 km/h 82% 0 mm
04:55 18.7 °C 14.8 °C 1010 hPa SSW 6.4 km/h 22.5 km/h 78% 0 mm
04:59 19.3 °C 14.9 °C 1010 hPa SSW 8 km/h 22.5 km/h 76% 0 mm
05:04 19.5 °C 14.9 °C 1010 hPa SSW 8 km/h 20.9 km/h 75% 0 mm
05:09 19.7 °C 14.9 °C 1010 hPa SSW 9.7 km/h 22.5 km/h 74% 0 mm
05:15 19.9 °C 14.9 °C 1009.7 hPa SSW 9.7 km/h 22.5 km/h 73% 0 mm
05:20 19.9 °C 14.9 °C 1009.7 hPa SW 4.8 km/h 24.1 km/h 73% 0 mm
05:24 19.9 °C 14.9 °C 1009.7 hPa SSW 9.7 km/h 24.1 km/h 73% 0 mm
05:29 19.9 °C 14.9 °C 1010 hPa SSW 14.5 km/h 22.5 km/h 73% 0 mm
05:34 19.9 °C 14.9 °C 1009.7 hPa SSW 11.3 km/h 27.4 km/h 73% 0 mm
05:39 19.9 °C 14.9 °C 1009.7 hPa WSW 4.8 km/h 19.3 km/h 73% 0 mm
05:44 19.9 °C 14.9 °C 1009.7 hPa SSW 16.1 km/h 25.7 km/h 73% 0 mm
05:49 19.9 °C 14.9 °C 1009.7 hPa South 12.9 km/h 22.5 km/h 73% 0 mm
05:54 19.8 °C 14.8 °C 1009.7 hPa SSW 9.7 km/h 24.1 km/h 73% 0 mm
05:59 19.8 °C 14.8 °C 1009.4 hPa SSW 9.7 km/h 25.7 km/h 73% 0 mm
06:04 19.8 °C 15 °C 1009.4 hPa SW 14.5 km/h 30.6 km/h 74% 0 mm
06:10 19.8 °C 15.1 °C 1009.4 hPa SSW 11.3 km/h 30.6 km/h 74% 0 mm
06:14 19.8 °C 15.1 °C 1009.4 hPa SW 9.7 km/h 22.5 km/h 74% 0 mm
06:19 19.9 °C 15.2 °C 1009.4 hPa SSW 9.7 km/h 27.4 km/h 74% 0 mm
06:24 20 °C 15.2 °C 1009 hPa SSW 11.3 km/h 32.2 km/h 74% 0 mm
06:29 20 °C 15.2 °C 1009 hPa SSW 11.3 km/h 32.2 km/h 74% 0 mm
06:34 20 °C 15.2 °C 1009 hPa South 11.3 km/h 22.5 km/h 74% 0 mm
06:39 20.1 °C 15.3 °C 1009 hPa SW 4.8 km/h 17.7 km/h 74% 0 mm
06:44 20.1 °C 15.3 °C 1009 hPa SSW 11.3 km/h 24.1 km/h 74% 0 mm
06:49 20.2 °C 15.4 °C 1009 hPa SSW 9.7 km/h 25.7 km/h 74% 0 mm
06:54 20.2 °C 15.4 °C 1009 hPa SSW 9.7 km/h 25.7 km/h 74% 0 mm
06:59 20.3 °C 15.5 °C 1008.7 hPa SSW 9.7 km/h 22.5 km/h 74% 0 mm
07:04 20.4 °C 15.7 °C 1008.7 hPa WSW 17.7 km/h 35.4 km/h 74% 0 mm
07:09 20.6 °C 15.8 °C 1008.4 hPa SW 25.7 km/h 25.7 km/h 74% 0 mm
07:15 20.6 °C 15.8 °C 1008.4 hPa SSW 6.4 km/h 32.2 km/h 74% 0 mm
07:19 20.7 °C 15.9 °C 1008.4 hPa SSW 11.3 km/h 32.2 km/h 74% 0 mm
07:24 20.8 °C 16 °C 1008.4 hPa SSW 11.3 km/h 24.1 km/h 74% 0 mm
07:29 20.9 °C 16.1 °C 1008 hPa SW 11.3 km/h 27.4 km/h 74% 0 mm
07:34 20.9 °C 16.1 °C 1008 hPa South 9.7 km/h 22.5 km/h 74% 0 mm
07:39 20.9 °C 16.1 °C 1008 hPa SW 9.7 km/h 22.5 km/h 74% 0 mm
07:44 20.9 °C 16.1 °C 1008 hPa SSW 9.7 km/h 24.1 km/h 74% 0 mm
07:49 21 °C 16.4 °C 1008 hPa SSW 11.3 km/h 27.4 km/h 75% 0 mm
07:54 21.1 °C 16.2 °C 1008 hPa SSW 11.3 km/h 27.4 km/h 74% 0 mm
07:59 21.1 °C 16.2 °C 1008 hPa SSW 4.8 km/h 19.3 km/h 74% 0 mm
08:04 21.1 °C 16.3 °C 1008 hPa SSW 24.1 km/h 24.1 km/h 74% 0 mm
08:09 21.2 °C 16.6 °C 1007.7 hPa South 4.8 km/h 22.5 km/h 75% 0 mm
08:14 21.2 °C 16.6 °C 1007.7 hPa SSW 9.7 km/h 24.1 km/h 75% 0 mm
08:19 21.3 °C 16.7 °C 1007.7 hPa SSW 9.7 km/h 22.5 km/h 75% 0 mm
08:24 21.4 °C 16.6 °C 1007.3 hPa SSW 11.3 km/h 24.1 km/h 74% 0 mm
08:29 21.4 °C 16.6 °C 1007.3 hPa SSW 9.7 km/h 24.1 km/h 74% 0 mm
08:34 21.5 °C 16.9 °C 1007.3 hPa SW 16.1 km/h 19.3 km/h 75% 0 mm
08:39 21.7 °C 16.9 °C 1007.3 hPa SW 20.9 km/h 22.5 km/h 74% 0 mm
08:44 21.9 °C 17.1 °C 1007.3 hPa SSW 9.7 km/h 27.4 km/h 74% 0 mm
08:49 22.1 °C 17.2 °C 1007.3 hPa SSW 9.7 km/h 27.4 km/h 74% 0 mm
08:54 22.2 °C 17.3 °C 1007.3 hPa SSW 6.4 km/h 20.9 km/h 74% 0 mm
08:59 22.2 °C 17.1 °C 1007 hPa SSW 8 km/h 24.1 km/h 73% 0 mm
09:04 22.2 °C 17.2 °C 1007.3 hPa WSW 14.5 km/h 25.7 km/h 73% 0 mm
09:09 22.2 °C 17.1 °C 1007 hPa SSW 11.3 km/h 25.7 km/h 73% 0 mm
09:14 22.2 °C 17.3 °C 1007 hPa SSW 9.7 km/h 24.1 km/h 74% 0 mm
09:19 22.3 °C 17.3 °C 1007 hPa SSW 9.7 km/h 27.4 km/h 73% 0 mm
09:24 22.5 °C 17.4 °C 1007 hPa SSW 9.7 km/h 27.4 km/h 73% 0 mm
09:29 22.7 °C 17.6 °C 1007 hPa South 8 km/h 20.9 km/h 73% 0 mm
09:34 22.9 °C 17.8 °C 1006.7 hPa SW 8 km/h 20.9 km/h 73% 0 mm
09:39 23 °C 17.9 °C 1006.7 hPa South 8 km/h 14.5 km/h 73% 0 mm
09:44 22.9 °C 17.6 °C 1006.7 hPa West 14.5 km/h 20.9 km/h 72% 0 mm
09:49 22.9 °C 17.6 °C 1006.7 hPa SSW 19.3 km/h 30.6 km/h 72% 0 mm
09:54 22.9 °C 17.8 °C 1006.7 hPa West 11.3 km/h 25.7 km/h 73% 0 mm
09:59 23 °C 17.9 °C 1006.3 hPa SSW 11.3 km/h 24.1 km/h 73% 0 mm
10:04 23.1 °C 18 °C 1006.3 hPa SW 8 km/h 20.9 km/h 73% 0 mm
10:09 23.2 °C 18.1 °C 1006.3 hPa SW 9.7 km/h 22.5 km/h 73% 0 mm
10:14 23.3 °C 18.2 °C 1006.3 hPa SW 9.7 km/h 22.5 km/h 73% 0 mm
10:20 23.4 °C 18.3 °C 1006.3 hPa SW 11.3 km/h 37 km/h 73% 0 mm
10:24 23.4 °C 18.1 °C 1006.3 hPa SW 14.5 km/h 32.2 km/h 72% 0 mm
10:29 23.4 °C 18.1 °C 1006 hPa SW 12.9 km/h 32.2 km/h 72% 0 mm
10:34 23.6 °C 18.4 °C 1006.3 hPa WNW 14.5 km/h 32.2 km/h 73% 0 mm
10:39 23.9 °C 18.6 °C 1006 hPa SW 11.3 km/h 29 km/h 72% 0 mm
10:44 24.4 °C 18.6 °C 1006 hPa South 9.7 km/h 29 km/h 70% 0 mm
10:49 24.4 °C 18.6 °C 1006 hPa SSW 9.7 km/h 33.8 km/h 70% 0 mm
10:54 24.2 °C 18.8 °C 1005.6 hPa SW 8 km/h 32.2 km/h 72% 0 mm
10:59 24.3 °C 18.5 °C 1005.6 hPa SW 9.7 km/h 33.8 km/h 70% 0 mm
11:04 24.8 °C 18.9 °C 1005.6 hPa SW 11.3 km/h 33.8 km/h 70% 0 mm
11:09 24.8 °C 18.8 °C 1005.6 hPa South 24.1 km/h 29 km/h 69% 0 mm
11:14 24.5 °C 18.7 °C 1005.6 hPa SW 38.6 km/h 38.6 km/h 70% 0 mm
11:19 24.4 °C 18.6 °C 1005.6 hPa South 16.1 km/h 38.6 km/h 70% 0 mm
11:24 24.4 °C 18.6 °C 1005.3 hPa SW 16.1 km/h 38.6 km/h 70% 0 mm
11:29 24.5 °C 18.9 °C 1005.3 hPa SW 14.5 km/h 32.2 km/h 71% 0 mm
11:34 24.6 °C 18.7 °C 1005.3 hPa SW 14.5 km/h 32.2 km/h 70% 0 mm
11:39 24.4 °C 18.6 °C 1005 hPa SSE 16.1 km/h 27.4 km/h 70% 0 mm
11:44 24.3 °C 18.5 °C 1005 hPa SW 12.9 km/h 29 km/h 70% 0 mm
11:49 24.3 °C 18.4 °C 1005 hPa South 14.5 km/h 30.6 km/h 70% 0 mm
11:54 24.2 °C 18.6 °C 1005 hPa SSW 14.5 km/h 30.6 km/h 71% 0 mm
11:59 24.2 °C 18.6 °C 1005 hPa SSW 12.9 km/h 30.6 km/h 71% 0 mm
12:04 24.2 °C 18.6 °C 1005 hPa SSW 11.3 km/h 27.4 km/h 71% 0 mm
12:09 24.3 °C 18.7 °C 1005 hPa SSW 20.9 km/h 29 km/h 71% 0 mm
12:14 24.4 °C 18.6 °C 1005 hPa SW 16.1 km/h 24.1 km/h 70% 0 mm
12:19 24.4 °C 18.6 °C 1005 hPa SSW 14.5 km/h 30.6 km/h 70% 0 mm
12:24 24.3 °C 18.4 °C 1005 hPa SW 12.9 km/h 30.6 km/h 70% 0 mm
12:29 24.2 °C 18.6 °C 1005 hPa SW 11.3 km/h 25.7 km/h 71% 0 mm
12:34 24.2 °C 18.6 °C 1005 hPa SW 17.7 km/h 25.7 km/h 71% 0 mm
12:39 24.1 °C 18.4 °C 1005 hPa South 14.5 km/h 27.4 km/h 71% 0 mm
12:44 24.1 °C 18.4 °C 1004.6 hPa SW 16.1 km/h 33.8 km/h 71% 0 mm
12:49 24 °C 18.4 °C 1004.6 hPa SSW 11.3 km/h 35.4 km/h 71% 0 mm
12:54 24 °C 18.4 °C 1004.6 hPa SW 17.7 km/h 32.2 km/h 71% 0 mm
12:59 24.2 °C 18.6 °C 1004.3 hPa SSW 25.7 km/h 33.8 km/h 71% 0 mm
13:04 24.4 °C 18.6 °C 1004.3 hPa WSW 12.9 km/h 33.8 km/h 70% 0 mm
13:09 24.8 °C 19 °C 1003.9 hPa SW 9.7 km/h 20.9 km/h 70% 0 mm
13:14 24.9 °C 18.9 °C 1003.9 hPa SW 12.9 km/h 27.4 km/h 69% 0 mm
13:19 24.8 °C 18.7 °C 1003.6 hPa SW 14.5 km/h 30.6 km/h 69% 0 mm
13:24 24.7 °C 18.6 °C 1003.6 hPa SW 14.5 km/h 30.6 km/h 69% 0 mm
13:29 24.7 °C 18.7 °C 1003.6 hPa SW 14.5 km/h 30.6 km/h 69% 0 mm
13:34 24.6 °C 18.5 °C 1003.3 hPa South 27.4 km/h 29 km/h 69% 0 mm
13:39 24.3 °C 18.3 °C 1003.3 hPa WSW 4.8 km/h 29 km/h 69% 0 mm
13:44 24.2 °C 18.4 °C 1002.9 hPa SW 12.9 km/h 33.8 km/h 70% 0 mm
13:49 24.1 °C 18.5 °C 1002.9 hPa SSW 6.4 km/h 16.1 km/h 71% 0 mm
13:54 24.2 °C 18.3 °C 1002.6 hPa SSW 11.3 km/h 24.1 km/h 70% 0 mm
13:59 24.2 °C 18.3 °C 1002.6 hPa SW 14.5 km/h 24.1 km/h 70% 0 mm
14:04 24.3 °C 18.4 °C 1002.6 hPa SSW 11.3 km/h 27.4 km/h 70% 0 mm
14:09 24.2 °C 18.3 °C 1002.6 hPa SW 12.9 km/h 27.4 km/h 70% 0 mm
14:14 24.1 °C 18.4 °C 1002.3 hPa SW 11.3 km/h 25.7 km/h 71% 0 mm
14:19 24.2 °C 18.3 °C 1002.3 hPa SW 11.3 km/h 27.4 km/h 70% 0 mm
14:24 24.7 °C 18.6 °C 1002.3 hPa West 35.4 km/h 35.4 km/h 69% 0 mm
14:29 24.8 °C 18.4 °C 1002.3 hPa WSW 9.7 km/h 33.8 km/h 68% 0 mm
14:34 24.7 °C 18.4 °C 1002.3 hPa WSW 12.9 km/h 32.2 km/h 68% 0 mm
14:39 24.5 °C 18.2 °C 1002.3 hPa SW 16.1 km/h 35.4 km/h 68% 0 mm
14:44 24.4 °C 18.3 °C 1002.3 hPa WSW 17.7 km/h 35.4 km/h 69% 0 mm
14:49 24.6 °C 18.3 °C 1002.6 hPa WSW 17.7 km/h 35.4 km/h 68% 0 mm
14:54 24.7 °C 18.4 °C 1002.3 hPa WSW 17.7 km/h 35.4 km/h 68% 0 mm
14:59 24.6 °C 18.3 °C 1002.3 hPa SW 17.7 km/h 33.8 km/h 68% 0 mm
15:04 24.5 °C 18.2 °C 1002.3 hPa SW 20.9 km/h 30.6 km/h 68% 0 mm
15:09 24.5 °C 17.9 °C 1001.9 hPa WSW 11.3 km/h 33.8 km/h 67% 0 mm
15:14 24.5 °C 17.9 °C 1001.9 hPa WSW 9.7 km/h 30.6 km/h 67% 0 mm
15:19 24.5 °C 17.9 °C 1001.6 hPa SW 24.1 km/h 29 km/h 67% 0 mm
15:24 24.3 °C 18.1 °C 1001.6 hPa WNW 16.1 km/h 35.4 km/h 68% 0 mm
15:29 24.3 °C 18 °C 1001.9 hPa WSW 9.7 km/h 30.6 km/h 68% 0 mm
15:34 24.1 °C 17.8 °C 1001.9 hPa SW 14.5 km/h 35.4 km/h 68% 0 mm
15:39 24 °C 17.9 °C 1001.9 hPa SW 16.1 km/h 35.4 km/h 69% 0 mm
15:44 23.8 °C 18.1 °C 1001.9 hPa WSW 9.7 km/h 30.6 km/h 70% 0 mm
15:49 23.4 °C 18.3 °C 1002.9 hPa NW 22.5 km/h 30.6 km/h 73% 0 mm
15:54 22.1 °C 18.1 °C 1002.9 hPa NW 29 km/h 54.7 km/h 78% 3.56 mm
15:59 20.9 °C 17.7 °C 1002.6 hPa WSW 24.1 km/h 54.7 km/h 82% 4.32 mm
16:04 20.4 °C 17.7 °C 1002.6 hPa WSW 22.5 km/h 54.7 km/h 84% 4.32 mm
16:09 20.2 °C 17.8 °C 1002.6 hPa WSW 16.1 km/h 38.6 km/h 86% 4.32 mm
16:14 20.2 °C 17.7 °C 1002.6 hPa WSW 20.9 km/h 32.2 km/h 86% 4.32 mm
16:19 20.2 °C 17.8 °C 1002.6 hPa SW 20.9 km/h 33.8 km/h 86% 4.32 mm
16:24 20.2 °C 17.8 °C 1002.9 hPa SW 20.9 km/h 35.4 km/h 86% 4.32 mm
16:29 20.2 °C 17.7 °C 1002.9 hPa WSW 19.3 km/h 38.6 km/h 86% 4.32 mm
16:34 20.2 °C 17.6 °C 1003.3 hPa SW 16.1 km/h 33.8 km/h 85% 4.57 mm
16:39 20.1 °C 17.5 °C 1003.3 hPa West 9.7 km/h 32.2 km/h 85% 4.57 mm
16:44 20.1 °C 17.3 °C 1003.3 hPa West 11.3 km/h 27.4 km/h 84% 4.57 mm
16:49 20.1 °C 17.3 °C 1003.6 hPa West 14.5 km/h 32.2 km/h 84% 4.57 mm
16:54 20.1 °C 17.3 °C 1003.6 hPa WSW 14.5 km/h 32.2 km/h 84% 1.02 mm
16:59 20 °C 16.6 °C 1003.9 hPa West 14.5 km/h 33.8 km/h 81% 0.25 mm
17:04 19.8 °C 15.9 °C 1003.6 hPa West 14.5 km/h 33.8 km/h 78% 0.25 mm
17:09 19.7 °C 14.9 °C 1003.6 hPa West 12.9 km/h 29 km/h 74% 0.25 mm
17:14 19.6 °C 14.2 °C 1003.9 hPa West 12.9 km/h 32.2 km/h 71% 0.25 mm
17:19 19.5 °C 13.7 °C 1004.3 hPa WNW 17.7 km/h 33.8 km/h 69% 0.25 mm
17:24 19.4 °C 13.4 °C 1004.6 hPa West 17.7 km/h 33.8 km/h 68% 0.25 mm
17:29 19.4 °C 13.3 °C 1004.6 hPa NW 16.1 km/h 27.4 km/h 68% 0.25 mm
17:34 19.3 °C 13.2 °C 1004.6 hPa WSW 22.5 km/h 32.2 km/h 68% 0 mm
17:39 19.2 °C 13.2 °C 1004.6 hPa West 4.8 km/h 30.6 km/h 68% 0 mm
17:44 19.1 °C 13.3 °C 1004.6 hPa SSW 17.7 km/h 27.4 km/h 69% 0 mm
17:49 19 °C 13.2 °C 1005 hPa West 16.1 km/h 24.1 km/h 69% 0 mm
17:54 18.9 °C 13.1 °C 1005 hPa West 11.3 km/h 24.1 km/h 69% 0 mm
17:59 18.9 °C 12.9 °C 1005.3 hPa WSW 12.9 km/h 38.6 km/h 68% 0 mm
18:04 18.9 °C 12.9 °C 1006 hPa SW 9.7 km/h 30.6 km/h 68% 0 mm
18:09 18.8 °C 12.7 °C 1006.3 hPa WSW 16.1 km/h 32.2 km/h 68% 0 mm
18:14 18.7 °C 12.7 °C 1006 hPa SSW 19.3 km/h 29 km/h 68% 0 mm
18:19 18.6 °C 12.3 °C 1006 hPa WNW 14.5 km/h 30.6 km/h 67% 0 mm
18:24 18.6 °C 12.3 °C 1006.7 hPa WSW 16.1 km/h 30.6 km/h 67% 0 mm
18:29 18.5 °C 12.3 °C 1006.7 hPa West 16.1 km/h 35.4 km/h 67% 0 mm
18:34 18.4 °C 12.2 °C 1006.3 hPa WSW 16.1 km/h 35.4 km/h 67% 0 mm
18:39 18.3 °C 12.1 °C 1006.7 hPa WSW 16.1 km/h 29 km/h 67% 0 mm
18:44 18.3 °C 12.1 °C 1007 hPa WNW 11.3 km/h 27.4 km/h 67% 0 mm
18:49 18.2 °C 11.9 °C 1007 hPa WSW 11.3 km/h 29 km/h 67% 0 mm
18:54 18.1 °C 12.1 °C 1007 hPa WSW 12.9 km/h 30.6 km/h 68% 0 mm
18:59 18.1 °C 12.1 °C 1007.3 hPa West 20.9 km/h 33.8 km/h 68% 0 mm
19:04 18 °C 12.2 °C 1007.3 hPa WNW 11.3 km/h 22.5 km/h 69% 0 mm
19:09 17.9 °C 12.1 °C 1007.3 hPa West 17.7 km/h 20.9 km/h 69% 0 mm
19:14 17.8 °C 12.1 °C 1007.3 hPa West 19.3 km/h 25.7 km/h 69% 0 mm
19:19 17.7 °C 11.9 °C 1007.7 hPa WNW 9.7 km/h 32.2 km/h 69% 0 mm
19:24 17.6 °C 11.6 °C 1007.7 hPa West 14.5 km/h 33.8 km/h 68% 0 mm
19:29 17.4 °C 11.5 °C 1007.7 hPa West 17.7 km/h 35.4 km/h 68% 0 mm
19:34 17.4 °C 11.4 °C 1008 hPa West 17.7 km/h 41.8 km/h 68% 0 mm
19:39 17.2 °C 11.2 °C 1008 hPa West 17.7 km/h 41.8 km/h 68% 0 mm
19:44 16.8 °C 10.9 °C 1008.4 hPa WNW 16.1 km/h 37 km/h 68% 0 mm
19:49 16.3 °C 10.6 °C 1008.7 hPa WNW 17.7 km/h 30.6 km/h 69% 0 mm
19:54 15.9 °C 10.1 °C 1008.7 hPa WNW 16.1 km/h 30.6 km/h 68% 0 mm
19:59 15.6 °C 9.9 °C 1009 hPa WNW 17.7 km/h 29 km/h 69% 0 mm
20:04 15.3 °C 9.7 °C 1009.4 hPa NW 8 km/h 32.2 km/h 69% 0 mm
20:09 15.1 °C 9.7 °C 1009.4 hPa NW 14.5 km/h 20.9 km/h 70% 0 mm
20:14 15 °C 9.8 °C 1009.4 hPa NW 22.5 km/h 24.1 km/h 71% 0 mm
20:19 14.9 °C 9.9 °C 1009.7 hPa WSW 16.1 km/h 29 km/h 72% 0 mm
20:24 14.7 °C 9.4 °C 1009.7 hPa WNW 17.7 km/h 33.8 km/h 71% 0 mm
20:29 14.6 °C 9.3 °C 1009.7 hPa WNW 17.7 km/h 33.8 km/h 71% 0 mm
20:34 14.4 °C 9.2 °C 1009.7 hPa WNW 14.5 km/h 33.8 km/h 71% 0 mm
20:39 14.2 °C 9.1 °C 1010 hPa WNW 12.9 km/h 35.4 km/h 71% 0 mm
20:44 13.9 °C 8.6 °C 1010.4 hPa West 24.1 km/h 30.6 km/h 70% 0 mm
20:49 13.7 °C 8.3 °C 1010.4 hPa WNW 9.7 km/h 25.7 km/h 70% 0 mm
20:54 13.5 °C 8.3 °C 1010.7 hPa WNW 12.9 km/h 30.6 km/h 71% 0 mm
20:59 13.4 °C 8.1 °C 1010.7 hPa West 16.1 km/h 30.6 km/h 70% 0 mm
21:04 13.3 °C 7.7 °C 1011.1 hPa NNW 20.9 km/h 40.2 km/h 69% 0 mm
21:09 13.1 °C 7.3 °C 1011.1 hPa WNW 19.3 km/h 27.4 km/h 68% 0 mm
21:14 12.9 °C 7.2 °C 1011.4 hPa WSW 27.4 km/h 30.6 km/h 68% 0 mm
21:19 12.7 °C 7.2 °C 1011.4 hPa WNW 14.5 km/h 35.4 km/h 69% 0 mm
21:24 12.6 °C 7.1 °C 1011.4 hPa NW 16.1 km/h 35.4 km/h 69% 0 mm
21:29 12.4 °C 7.1 °C 1011.7 hPa WNW 14.5 km/h 29 km/h 70% 0 mm
21:34 12.3 °C 7 °C 1011.7 hPa WNW 14.5 km/h 29 km/h 70% 0 mm
21:39 12.2 °C 6.9 °C 1012.1 hPa WSW 11.3 km/h 32.2 km/h 70% 0 mm
21:44 12.2 °C 6.7 °C 1012.1 hPa West 14.5 km/h 32.2 km/h 69% 0 mm
21:49 12.1 °C 6.8 °C 1012.4 hPa NW 19.3 km/h 29 km/h 70% 0 mm
21:54 12.1 °C 6.7 °C 1012.4 hPa NW 20.9 km/h 33.8 km/h 70% 0 mm
21:59 12.1 °C 6.7 °C 1012.8 hPa WNW 9.7 km/h 29 km/h 70% 0 mm
22:04 12.1 °C 6.6 °C 1012.8 hPa WNW 11.3 km/h 32.2 km/h 69% 0 mm
22:09 12 °C 6.3 °C 1012.8 hPa NW 17.7 km/h 25.7 km/h 68% 0 mm
22:14 11.8 °C 6.1 °C 1012.8 hPa NNW 19.3 km/h 25.7 km/h 68% 0 mm
22:19 11.7 °C 6 °C 1013.1 hPa WNW 12.9 km/h 25.7 km/h 68% 0 mm
22:24 11.6 °C 5.9 °C 1013.1 hPa WNW 14.5 km/h 30.6 km/h 68% 0 mm
22:29 11.5 °C 5.8 °C 1013.1 hPa West 12.9 km/h 22.5 km/h 68% 0 mm
22:34 11.5 °C 5.8 °C 1013.4 hPa WNW 12.9 km/h 29 km/h 68% 0 mm
22:39 11.4 °C 5.7 °C 1013.4 hPa NNW 6.4 km/h 29 km/h 68% 0 mm
22:44 11.4 °C 5.7 °C 1013.4 hPa WNW 3.2 km/h 24.1 km/h 68% 0 mm
22:49 11.3 °C 5.6 °C 1013.8 hPa WNW 11.3 km/h 24.1 km/h 68% 0 mm
22:54 11.3 °C 5.8 °C 1013.8 hPa WNW 8 km/h 24.1 km/h 69% 0 mm
22:59 11.2 °C 5.7 °C 1013.8 hPa West 14.5 km/h 25.7 km/h 69% 0 mm
23:04 11.2 °C 5.7 °C 1013.8 hPa NW 1.6 km/h 17.7 km/h 69% 0 mm
23:09 11.2 °C 5.7 °C 1014.1 hPa NNE 4.8 km/h 24.1 km/h 69% 0 mm
23:14 11.2 °C 5.7 °C 1014.1 hPa NW 8 km/h 17.7 km/h 69% 0 mm
23:19 11.1 °C 5.8 °C 1014.1 hPa NW 8 km/h 20.9 km/h 70% 0 mm
23:24 11.1 °C 5.8 °C 1014.1 hPa NW 8 km/h 20.9 km/h 70% 0 mm
23:29 10.9 °C 5.9 °C 1014.1 hPa NW 6.4 km/h 16.1 km/h 71% 0 mm
23:34 10.8 °C 5.6 °C 1014.1 hPa NW 8 km/h 22.5 km/h 70% 0 mm
23:39 10.7 °C 5.4 °C 1014.4 hPa NNW 11.3 km/h 22.5 km/h 70% 0 mm
23:44 10.6 °C 5.4 °C 1014.4 hPa NW 8 km/h 22.5 km/h 70% 0 mm
23:49 10.6 °C 5.5 °C 1014.4 hPa NW 6.4 km/h 17.7 km/h 71% 0 mm
23:54 10.6 °C 5.7 °C 1014.8 hPa NNW 11.3 km/h 16.1 km/h 72% 0 mm
23:59 10.6 °C 5.5 °C 1014.8 hPa WNW 8 km/h 27.4 km/h 71% 0 mm
Buffalo, New York, USA
Compliments of Weather Underground - 2.5 mb